STARLINK-4198 (52858 NORAD) Tracking and Keplerian Element Data

This shows tracking and keplerian element data for the satellite.

Feedback or suggestion? Click here.




ElementValue
Catalog52858
NameSTARLINK-4198
Epoch Orbit1296
Epoch Day248.25001157
Epoch Year2022
RAAN16.7384
Inclination53.2172
Eccentricity0.0001505
Argument of Perigee64.4715
Mean Anonmoly150.8909
Mean Motion15.11947279
Decay Rate-0.01075338
L11 52858U 22062AE 22248.25001157 -.01075338 00000+0 -66984-1 0 9991
L22 52858 53.2172 16.7384 0001505 64.4715 150.8909 15.11947279 12963

Live tracking and technical data element details for STARLINK-4198 (NORAD 52858). STARLINK-4198 can be tracked NOW for your location showing map with azimuth and elevation plus other details from your city location.

Track the satellite on the map from your city or location and see movement details for azimuth, elevation, latitude, longitude, range, height, and movement on the map or in text.







IsCatalogInMostPopularTable: catalog: 52858, numindb: 5
Update: records affected: 1



GetName: 52858 STARLINK-4198

Hit Count: updated at: Sun, 25 Sep 2022 08:28:42 GMT